Regional Weather Roundup
Issued by NWS State College, PA

Home | Current Version | Previous Version | Text Only | Print | Product List | Glossary On
Versions: 1 2 3 4 5 6 7 8 9 10 11 12 13 14 15 16 17 18 19 20 21 22 23 24 25 26 27 28 29 30 31 32 33 34 35 36 37 38 39 40 41 42 43 44 45 46 47 48 49 50
000
ASUS41 KCTP 281710
RWRCTP

REGIONAL WEATHER ROUNDUP
NATIONAL WEATHER SERVICE STATE COLLEGE PA
100 PM EDT MON JUL 28 2014

Note: "fair" indicates few or no clouds below 12,000 feet with no
significant weather and/or obstructions to visibility.

* = STATION THAT DOES NOT REPORT PRECIPITATION /E.G. RAIN...SNOW...ETC/
    THUNDER OR FOG.

PAZ002>004-007>009-013>016-020>023-029>032-281800-
WESTERN PENNSYLVANIA

CITY           SKY/WX    TMP DP  RH WIND       PRES   REMARKS
ERIE           LGT RAIN  64  58  80 N14G22    29.77R
MEADVILLE      CLOUDY    61  58  90 N12G23    29.78R
FRANKLIN*      CLOUDY    63  59  88 N10G20    29.75R
NEW CASTLE     HVY RAIN  63  61  93 N13G20    29.78R VSB 1
BEAVER COUNTY  LGT RAIN  64  61  88 NW10G17   29.77R
BUTLER*        CLOUDY    63  61  94 W10       29.76S
PITTSBURGH INT RAIN      67  62  84 W13G22    29.76R
PITTSBURGH     CLOUDY    66  59  78 W12G20    29.75S
INDIANA*       CLOUDY    66  59  77 W14G24    29.76S
LATROBE        CLOUDY    66  61  82 W18       29.75F
WASHINGTON CO* CLOUDY    64  59  82 W9G18     29.80R
$$

PAZ004>006-010>012-017>019-024>028-033>037-041-042-045-046-049>053-281800-
CENTRAL PENNSYLVANIA

CITY           SKY/WX    TMP DP  RH WIND       PRES   REMARKS
BRADFORD       CLOUDY    62  58  86 N7        29.70R
DUBOIS         PTSUNNY   68  62  81 W14       29.68S
CLEARFIELD     PTSUNNY   71  59  65 W14       29.67F
JOHNSTOWN      CLOUDY    61  56  83 W17G25    29.74F
ALTOONA        CLOUDY    67  59  75 SW10      29.72S
STATE COLLEGE  PTSUNNY   70  59  68 W15G22    29.66F
WILLIAMSPORT   PTSUNNY   77  58  51 W12G22    29.57F
SELINSGROVE    MOSUNNY   77  61  57 VRB7      29.61F
FT INDIANTOWN  MOSUNNY   77  62  58 W10G28    29.62S
CAPITAL CITY   PTSUNNY   76  57  51 W16G26    29.63S
HARRISBURG     PTSUNNY   78  59  51 W17       29.62S
YORK           CLOUDY    75  60  59 W12G21    29.65S
$$

PAZ038>040-043-044-047-048-054-055-060>062-067>071-281800-
EASTERN PENNSYLVANIA

CITY           SKY/WX    TMP DP  RH WIND       PRES   REMARKS
SCRANTON       PTSUNNY   75  61  61 SW14G20   29.56F
MOUNT POCONO   PTSUNNY   68  60  75 W15       29.61F
ALLENTOWN      CLOUDY    76  60  57 W8G18     29.58S
QUAKERTOWN*    PTSUNNY   75  64  69 W8G17     29.60S
READING        MOSUNNY   79  60  52 W18G24    29.59F
LANCASTER      MOSUNNY   78  61  55 W18G26    29.62S
COATESVILLE    MOSUNNY   77  64  65 NW16G22   29.64S
POTTSTOWN      PTSUNNY   78  61  55 W14G25    29.61F
BLUE BELL      MOSUNNY   81  64  57 W7        29.58F
DOYLESTOWN     PTSUNNY   78  62  57 W12G22    29.58F
WILLOW GROVE   NOT AVBL
NORTH PHILA    MOSUNNY   82  60  47 W15       29.59F
PHILADELPHIA   MOSUNNY   81  61  50 W25G35    29.59F
$$



USA.gov is the U.S. government's official web portal to all federal, state and local government web resources and services.